Time,TemperatureF,DewpointF,PressureIn,WindDirection,WindDirectionDegrees,WindSpeedMPH,WindSpeedGustMPH,Humidity,HourlyPrecipIn,Conditions,Clouds,dailyrainin,SoftwareType,DateUTC
2013-04-16 00:07:00,49.1,44.4,29.69,North,-999,-999.0,-999.0,84,-99.99,,,-99.99,meteohub,2013-04-15 23:07:00,
2013-04-16 00:12:00,49.1,44.4,29.69,North,-999,-999.0,-999.0,84,-99.99,,,-99.99,meteohub,2013-04-15 23:12:00,
2013-04-16 00:17:00,48.9,44.2,29.69,North,-999,-999.0,-999.0,84,-99.99,,,-99.99,meteohub,2013-04-15 23:17:00,
2013-04-16 00:22:00,48.9,44.2,29.69,North,-999,-999.0,-999.0,84,-99.99,,,-99.99,meteohub,2013-04-15 23:22:00,
2013-04-16 00:27:00,48.9,44.2,29.69,North,-999,-999.0,-999.0,84,-99.99,,,-99.99,meteohub,2013-04-15 23:27:00,
2013-04-16 00:32:00,48.7,44.1,29.69,North,-999,-999.0,-999.0,84,-99.99,,,-99.99,meteohub,2013-04-15 23:32:00,
2013-04-16 00:37:00,48.7,44.1,29.69,North,-999,-999.0,-999.0,84,-99.99,,,-99.99,meteohub,2013-04-15 23:37:00,
2013-04-16 00:42:00,48.7,44.1,29.69,North,-999,-999.0,-999.0,84,-99.99,,,-99.99,meteohub,2013-04-15 23:42:00,
2013-04-16 00:47:00,48.7,44.1,29.69,North,-999,-999.0,-999.0,84,-99.99,,,-99.99,meteohub,2013-04-15 23:47:00,
2013-04-16 00:52:00,48.7,44.1,29.66,North,-999,-999.0,-999.0,84,-99.99,,,-99.99,meteohub,2013-04-15 23:52:00,
2013-04-16 00:57:00,48.7,44.1,29.66,North,-999,-999.0,-999.0,84,-99.99,,,-99.99,meteohub,2013-04-15 23:57:00,
2013-04-16 01:02:00,48.6,43.9,29.66,North,-999,-999.0,-999.0,84,-99.99,,,-99.99,meteohub,2013-04-16 00:02:00,
2013-04-16 01:07:00,48.7,44.1,29.66,North,-999,-999.0,-999.0,84,-99.99,,,-99.99,meteohub,2013-04-16 00:07:00,
2013-04-16 01:12:00,48.7,44.1,29.66,North,-999,-999.0,-999.0,84,-99.99,,,-99.99,meteohub,2013-04-16 00:12:00,
2013-04-16 01:17:00,48.6,43.7,29.66,North,-999,-999.0,-999.0,83,-99.99,,,-99.99,meteohub,2013-04-16 00:17:00,
2013-04-16 01:22:00,48.7,44.1,29.66,North,-999,-999.0,-999.0,84,-99.99,,,-99.99,meteohub,2013-04-16 00:22:00,
2013-04-16 01:27:00,48.7,44.1,29.66,North,-999,-999.0,-999.0,84,-99.99,,,-99.99,meteohub,2013-04-16 00:27:00,
2013-04-16 01:32:00,48.7,44.1,29.66,North,-999,-999.0,-999.0,84,-99.99,,,-99.99,meteohub,2013-04-16 00:32:00,
2013-04-16 01:37:00,48.7,44.1,29.66,North,-999,-999.0,-999.0,84,-99.99,,,-99.99,meteohub,2013-04-16 00:37:00,
2013-04-16 01:42:00,48.7,44.1,29.66,North,-999,-999.0,-999.0,84,-99.99,,,-99.99,meteohub,2013-04-16 00:42:00,
2013-04-16 01:47:00,48.7,44.1,29.66,North,-999,-999.0,-999.0,84,-99.99,,,-99.99,meteohub,2013-04-16 00:47:00,
2013-04-16 01:52:00,48.7,44.1,29.66,North,-999,-999.0,-999.0,84,-99.99,,,-99.99,meteohub,2013-04-16 00:52:00,
2013-04-16 01:57:00,48.7,44.1,29.66,North,-999,-999.0,-999.0,84,-99.99,,,-99.99,meteohub,2013-04-16 00:57:00,
2013-04-16 02:02:00,48.7,44.1,29.66,North,-999,-999.0,-999.0,84,-99.99,,,-99.99,meteohub,2013-04-16 01:02:00,
2013-04-16 02:07:00,48.7,44.1,29.66,North,-999,-999.0,-999.0,84,-99.99,,,-99.99,meteohub,2013-04-16 01:07:00,
2013-04-16 02:12:00,48.7,44.1,29.66,North,-999,-999.0,-999.0,84,-99.99,,,-99.99,meteohub,2013-04-16 01:12:00,
2013-04-16 02:17:00,48.7,44.4,29.66,North,-999,-999.0,-999.0,85,-99.99,,,-99.99,meteohub,2013-04-16 01:17:00,
2013-04-16 02:22:00,48.6,44.2,29.66,North,-999,-999.0,-999.0,85,-99.99,,,-99.99,meteohub,2013-04-16 01:22:00,
2013-04-16 02:27:00,48.6,44.2,29.66,North,-999,-999.0,-999.0,85,-99.99,,,-99.99,meteohub,2013-04-16 01:27:00,
2013-04-16 02:32:00,48.7,44.4,29.66,North,-999,-999.0,-999.0,85,-99.99,,,-99.99,meteohub,2013-04-16 01:32:00,
2013-04-16 02:37:00,48.7,44.4,29.63,North,-999,-999.0,-999.0,85,-99.99,,,-99.99,meteohub,2013-04-16 01:37:00,
2013-04-16 02:42:00,48.7,44.4,29.63,North,-999,-999.0,-999.0,85,-99.99,,,-99.99,meteohub,2013-04-16 01:42:00,
2013-04-16 02:47:00,48.9,44.6,29.63,North,-999,-999.0,-999.0,85,-99.99,,,-99.99,meteohub,2013-04-16 01:47:00,
2013-04-16 02:52:00,48.9,44.2,29.63,North,-999,-999.0,-999.0,84,-99.99,,,-99.99,meteohub,2013-04-16 01:52:00,
2013-04-16 02:57:00,48.9,44.2,29.63,North,-999,-999.0,-999.0,84,-99.99,,,-99.99,meteohub,2013-04-16 01:57:00,
2013-04-16 03:02:00,49.1,44.2,29.63,North,-999,-999.0,-999.0,83,-99.99,,,-99.99,meteohub,2013-04-16 02:02:00,
2013-04-16 03:07:00,49.1,44.2,29.63,North,-999,-999.0,-999.0,83,-99.99,,,-99.99,meteohub,2013-04-16 02:07:00,
2013-04-16 03:12:00,49.1,43.9,29.63,North,-999,-999.0,-999.0,82,-99.99,,,-99.99,meteohub,2013-04-16 02:12:00,
2013-04-16 03:17:00,49.3,44.1,29.63,North,-999,-999.0,-999.0,82,-99.99,,,-99.99,meteohub,2013-04-16 02:17:00,
2013-04-16 03:22:00,49.3,43.7,29.63,North,-999,-999.0,-999.0,81,-99.99,,,-99.99,meteohub,2013-04-16 02:22:00,
2013-04-16 03:27:00,49.3,43.7,29.63,North,-999,-999.0,-999.0,81,-99.99,,,-99.99,meteohub,2013-04-16 02:27:00,
2013-04-16 03:32:00,49.3,43.7,29.63,North,-999,-999.0,-999.0,81,-99.99,,,-99.99,meteohub,2013-04-16 02:32:00,
2013-04-16 03:37:00,49.3,43.7,29.63,North,-999,-999.0,-999.0,81,-99.99,,,-99.99,meteohub,2013-04-16 02:37:00,
2013-04-16 03:42:00,49.3,43.7,29.63,North,-999,-999.0,-999.0,81,-99.99,,,-99.99,meteohub,2013-04-16 02:42:00,
2013-04-16 03:47:00,49.1,43.5,29.63,North,-999,-999.0,-999.0,81,-99.99,,,-99.99,meteohub,2013-04-16 02:47:00,
2013-04-16 03:52:00,49.1,43.5,29.63,North,-999,-999.0,-999.0,81,-99.99,,,-99.99,meteohub,2013-04-16 02:52:00,
2013-04-16 03:57:00,49.3,44.1,29.63,North,-999,-999.0,-999.0,82,-99.99,,,-99.99,meteohub,2013-04-16 02:57:00,
2013-04-16 04:02:00,49.3,44.1,29.63,North,-999,-999.0,-999.0,82,-99.99,,,-99.99,meteohub,2013-04-16 03:02:00,
2013-04-16 04:07:00,49.5,44.2,29.63,North,-999,-999.0,-999.0,82,-99.99,,,-99.99,meteohub,2013-04-16 03:07:00,
2013-04-16 04:12:00,49.5,44.2,29.63,North,-999,-999.0,-999.0,82,-99.99,,,-99.99,meteohub,2013-04-16 03:12:00,
2013-04-16 04:17:00,49.5,43.9,29.63,North,-999,-999.0,-999.0,81,-99.99,,,-99.99,meteohub,2013-04-16 03:17:00,
2013-04-16 04:22:00,49.6,44.1,29.63,North,-999,-999.0,-999.0,81,-99.99,,,-99.99,meteohub,2013-04-16 03:22:00,
2013-04-16 04:27:00,49.6,44.1,29.63,North,-999,-999.0,-999.0,81,-99.99,,,-99.99,meteohub,2013-04-16 03:27:00,
2013-04-16 04:32:00,49.6,44.1,29.63,North,-999,-999.0,-999.0,81,-99.99,,,-99.99,meteohub,2013-04-16 03:32:00,
2013-04-16 04:37:00,49.6,44.1,29.60,North,-999,-999.0,-999.0,81,-99.99,,,-99.99,meteohub,2013-04-16 03:37:00,
2013-04-16 04:42:00,49.8,44.6,29.60,North,-999,-999.0,-999.0,82,-99.99,,,-99.99,meteohub,2013-04-16 03:42:00,
2013-04-16 04:47:00,49.8,44.6,29.60,North,-999,-999.0,-999.0,82,-99.99,,,-99.99,meteohub,2013-04-16 03:47:00,
2013-04-16 04:52:00,50.0,44.8,29.63,North,-999,-999.0,-999.0,82,-99.99,,,-99.99,meteohub,2013-04-16 03:52:00,
2013-04-16 04:57:00,50.0,44.4,29.63,North,-999,-999.0,-999.0,81,-99.99,,,-99.99,meteohub,2013-04-16 03:57:00,
2013-04-16 05:02:00,50.2,44.6,29.63,North,-999,-999.0,-999.0,81,-99.99,,,-99.99,meteohub,2013-04-16 04:02:00,
2013-04-16 05:07:00,50.2,44.6,29.60,North,-999,-999.0,-999.0,81,-99.99,,,-99.99,meteohub,2013-04-16 04:07:00,
2013-04-16 05:12:00,50.5,45.0,29.60,North,-999,-999.0,-999.0,81,-99.99,,,-99.99,meteohub,2013-04-16 04:12:00,
2013-04-16 05:17:00,50.7,45.5,29.60,North,-999,-999.0,-999.0,82,-99.99,,,-99.99,meteohub,2013-04-16 04:17:00,
2013-04-16 05:22:00,50.7,45.5,29.60,North,-999,-999.0,-999.0,82,-99.99,,,-99.99,meteohub,2013-04-16 04:22:00,
2013-04-16 05:27:00,50.7,46.0,29.60,North,-999,-999.0,-999.0,84,-99.99,,,-99.99,meteohub,2013-04-16 04:27:00,
2013-04-16 05:32:00,50.7,46.0,29.60,North,-999,-999.0,-999.0,84,-99.99,,,-99.99,meteohub,2013-04-16 04:32:00,
2013-04-16 05:37:00,50.7,46.4,29.60,North,-999,-999.0,-999.0,85,-99.99,,,-99.99,meteohub,2013-04-16 04:37:00,
2013-04-16 05:42:00,50.4,46.4,29.60,North,-999,-999.0,-999.0,86,-99.99,,,-99.99,meteohub,2013-04-16 04:42:00,
2013-04-16 05:47:00,50.2,47.1,29.60,North,-999,-999.0,-999.0,89,-99.99,,,-99.99,meteohub,2013-04-16 04:47:00,
2013-04-16 05:52:00,50.2,47.3,29.60,North,-999,-999.0,-999.0,90,-99.99,,,-99.99,meteohub,2013-04-16 04:52:00,
2013-04-16 05:57:00,50.0,47.1,29.60,North,-999,-999.0,-999.0,90,-99.99,,,-99.99,meteohub,2013-04-16 04:57:00,
2013-04-16 06:02:00,50.0,47.5,29.60,North,-999,-999.0,-999.0,91,-99.99,,,-99.99,meteohub,2013-04-16 05:02:00,
2013-04-16 06:07:00,50.0,48.0,29.60,North,-999,-999.0,-999.0,93,-99.99,,,-99.99,meteohub,2013-04-16 05:07:00,
2013-04-16 06:12:00,49.8,48.2,29.60,North,-999,-999.0,-999.0,94,-99.99,,,-99.99,meteohub,2013-04-16 05:12:00,
2013-04-16 06:17:00,49.8,48.2,29.60,North,-999,-999.0,-999.0,94,-99.99,,,-99.99,meteohub,2013-04-16 05:17:00,
2013-04-16 06:22:00,49.8,48.4,29.60,North,-999,-999.0,-999.0,95,-99.99,,,-99.99,meteohub,2013-04-16 05:22:00,
2013-04-16 06:27:00,49.8,48.7,29.60,North,-999,-999.0,-999.0,96,-99.99,,,-99.99,meteohub,2013-04-16 05:27:00,
2013-04-16 06:32:00,49.8,48.7,29.60,North,-999,-999.0,-999.0,96,-99.99,,,-99.99,meteohub,2013-04-16 05:32:00,
2013-04-16 06:37:00,49.8,48.9,29.60,North,-999,-999.0,-999.0,97,-99.99,,,-99.99,meteohub,2013-04-16 05:37:00,
2013-04-16 06:42:00,49.8,48.9,29.60,North,-999,-999.0,-999.0,97,-99.99,,,-99.99,meteohub,2013-04-16 05:42:00,
2013-04-16 06:47:00,49.8,48.9,29.60,North,-999,-999.0,-999.0,97,-99.99,,,-99.99,meteohub,2013-04-16 05:47:00,
2013-04-16 06:52:00,49.8,48.9,29.60,North,-999,-999.0,-999.0,97,-99.99,,,-99.99,meteohub,2013-04-16 05:52:00,
2013-04-16 06:57:00,50.0,49.1,29.60,North,-999,-999.0,-999.0,97,-99.99,,,-99.99,meteohub,2013-04-16 05:57:00,
2013-04-16 07:02:00,50.0,49.1,29.60,North,-999,-999.0,-999.0,97,-99.99,,,-99.99,meteohub,2013-04-16 06:02:00,
2013-04-16 07:07:00,50.2,49.3,29.60,North,-999,-999.0,-999.0,97,-99.99,,,-99.99,meteohub,2013-04-16 06:07:00,
2013-04-16 07:12:00,50.2,49.3,29.60,North,-999,-999.0,-999.0,97,-99.99,,,-99.99,meteohub,2013-04-16 06:12:00,
2013-04-16 07:17:00,50.2,49.3,29.60,North,-999,-999.0,-999.0,97,-99.99,,,-99.99,meteohub,2013-04-16 06:17:00,
2013-04-16 07:22:00,50.4,49.8,29.60,North,-999,-999.0,-999.0,98,-99.99,,,-99.99,meteohub,2013-04-16 06:22:00,
2013-04-16 07:27:00,50.5,50.0,29.60,North,-999,-999.0,-999.0,98,-99.99,,,-99.99,meteohub,2013-04-16 06:27:00,
2013-04-16 07:32:00,50.7,50.2,29.60,North,-999,-999.0,-999.0,98,-99.99,,,-99.99,meteohub,2013-04-16 06:32:00,
2013-04-16 07:37:00,50.9,50.0,29.60,North,-999,-999.0,-999.0,97,-99.99,,,-99.99,meteohub,2013-04-16 06:37:00,
2013-04-16 07:42:00,51.1,50.2,29.60,North,-999,-999.0,-999.0,97,-99.99,,,-99.99,meteohub,2013-04-16 06:42:00,
2013-04-16 07:47:00,51.3,50.2,29.60,North,-999,-999.0,-999.0,96,-99.99,,,-99.99,meteohub,2013-04-16 06:47:00,
2013-04-16 07:52:00,51.6,50.2,29.63,North,-999,-999.0,-999.0,95,-99.99,,,-99.99,meteohub,2013-04-16 06:52:00,
2013-04-16 07:57:00,52.0,50.4,29.63,North,-999,-999.0,-999.0,94,-99.99,,,-99.99,meteohub,2013-04-16 06:57:00,
2013-04-16 08:02:00,52.2,50.2,29.63,North,-999,-999.0,-999.0,93,-99.99,,,-99.99,meteohub,2013-04-16 07:02:00,
2013-04-16 08:07:00,52.7,50.2,29.63,North,-999,-999.0,-999.0,91,-99.99,,,-99.99,meteohub,2013-04-16 07:07:00,
2013-04-16 08:12:00,53.1,49.8,29.63,North,-999,-999.0,-999.0,89,-99.99,,,-99.99,meteohub,2013-04-16 07:12:00,
2013-04-16 08:17:00,53.1,48.7,29.63,North,-999,-999.0,-999.0,85,-99.99,,,-99.99,meteohub,2013-04-16 07:17:00,
2013-04-16 08:22:00,53.8,48.7,29.63,North,-999,-999.0,-999.0,83,-99.99,,,-99.99,meteohub,2013-04-16 07:22:00,
2013-04-16 08:27:00,54.5,48.4,29.63,North,-999,-999.0,-999.0,80,-99.99,,,-99.99,meteohub,2013-04-16 07:27:00,
2013-04-16 08:32:00,55.0,48.0,29.63,North,-999,-999.0,-999.0,77,-99.99,,,-99.99,meteohub,2013-04-16 07:32:00,
2013-04-16 08:37:00,56.1,48.0,29.63,North,-999,-999.0,-999.0,74,-99.99,,,-99.99,meteohub,2013-04-16 07:37:00,
2013-04-16 08:42:00,57.2,48.2,29.63,North,-999,-999.0,-999.0,72,-99.99,,,-99.99,meteohub,2013-04-16 07:42:00,
2013-04-16 08:47:00,56.8,47.5,29.63,North,-999,-999.0,-999.0,71,-99.99,,,-99.99,meteohub,2013-04-16 07:47:00,
2013-04-16 08:52:00,57.0,46.9,29.63,North,-999,-999.0,-999.0,69,-99.99,,,-99.99,meteohub,2013-04-16 07:52:00,
2013-04-16 08:57:00,56.3,46.2,29.63,North,-999,-999.0,-999.0,69,-99.99,,,-99.99,meteohub,2013-04-16 07:57:00,
2013-04-16 09:07:00,55.2,44.8,29.63,North,-999,-999.0,-999.0,68,-99.99,,,-99.99,meteohub,2013-04-16 08:07:00,
2013-04-16 09:12:00,55.8,45.7,29.63,North,-999,-999.0,-999.0,69,-99.99,,,-99.99,meteohub,2013-04-16 08:12:00,
2013-04-16 09:17:00,56.5,46.4,29.63,North,-999,-999.0,-999.0,69,-99.99,,,-99.99,meteohub,2013-04-16 08:17:00,
2013-04-16 09:22:00,58.1,47.3,29.63,North,-999,-999.0,-999.0,67,-99.99,,,-99.99,meteohub,2013-04-16 08:22:00,
2013-04-16 09:27:00,58.1,45.1,29.63,North,-999,-999.0,-999.0,62,-99.99,,,-99.99,meteohub,2013-04-16 08:27:00,
2013-04-16 09:32:00,58.3,45.0,29.63,North,-999,-999.0,-999.0,61,-99.99,,,-99.99,meteohub,2013-04-16 08:32:00,
2013-04-16 09:37:00,57.7,43.5,29.63,North,-999,-999.0,-999.0,59,-99.99,,,-99.99,meteohub,2013-04-16 08:37:00,
2013-04-16 09:42:00,57.6,43.9,29.63,North,-999,-999.0,-999.0,60,-99.99,,,-99.99,meteohub,2013-04-16 08:42:00,
2013-04-16 09:47:00,57.9,44.1,29.63,North,-999,-999.0,-999.0,60,-99.99,,,-99.99,meteohub,2013-04-16 08:47:00,
2013-04-16 09:52:00,59.2,45.0,29.63,North,-999,-999.0,-999.0,59,-99.99,,,-99.99,meteohub,2013-04-16 08:52:00,
2013-04-16 09:57:00,60.8,45.0,29.63,North,-999,-999.0,-999.0,56,-99.99,,,-99.99,meteohub,2013-04-16 08:57:00,
2013-04-16 10:02:00,61.2,45.0,29.63,North,-999,-999.0,-999.0,55,-99.99,,,-99.99,meteohub,2013-04-16 09:02:00,
2013-04-16 10:07:00,59.0,40.5,29.63,North,-999,-999.0,-999.0,50,-99.99,,,-99.99,meteohub,2013-04-16 09:07:00,
2013-04-16 10:12:00,58.6,41.2,29.63,North,-999,-999.0,-999.0,52,-99.99,,,-99.99,meteohub,2013-04-16 09:12:00,
2013-04-16 10:17:00,58.3,39.7,29.63,North,-999,-999.0,-999.0,50,-99.99,,,-99.99,meteohub,2013-04-16 09:17:00,
2013-04-16 10:22:00,58.1,41.0,29.66,North,-999,-999.0,-999.0,53,-99.99,,,-99.99,meteohub,2013-04-16 09:22:00,
2013-04-16 10:27:00,59.4,41.7,29.66,North,-999,-999.0,-999.0,52,-99.99,,,-99.99,meteohub,2013-04-16 09:27:00,
2013-04-16 10:32:00,59.2,41.0,29.66,North,-999,-999.0,-999.0,51,-99.99,,,-99.99,meteohub,2013-04-16 09:32:00,
2013-04-16 10:37:00,58.3,40.8,29.66,North,-999,-999.0,-999.0,52,-99.99,,,-99.99,meteohub,2013-04-16 09:37:00,
2013-04-16 10:42:00,57.9,40.5,29.66,North,-999,-999.0,-999.0,52,-99.99,,,-99.99,meteohub,2013-04-16 09:42:00,
2013-04-16 10:47:00,58.1,40.6,29.66,North,-999,-999.0,-999.0,52,-99.99,,,-99.99,meteohub,2013-04-16 09:47:00,
2013-04-16 10:52:00,58.8,41.2,29.66,North,-999,-999.0,-999.0,52,-99.99,,,-99.99,meteohub,2013-04-16 09:52:00,
2013-04-16 10:57:00,58.5,41.0,29.66,North,-999,-999.0,-999.0,52,-99.99,,,-99.99,meteohub,2013-04-16 09:57:00,
2013-04-16 11:02:00,59.9,41.2,29.66,North,-999,-999.0,-999.0,50,-99.99,,,-99.99,meteohub,2013-04-16 10:02:00,
2013-04-16 11:07:00,60.6,40.8,29.66,North,-999,-999.0,-999.0,48,-99.99,,,-99.99,meteohub,2013-04-16 10:07:00,
2013-04-16 11:12:00,61.7,40.8,29.66,North,-999,-999.0,-999.0,46,-99.99,,,-99.99,meteohub,2013-04-16 10:12:00,
2013-04-16 11:17:00,63.5,41.2,29.66,North,-999,-999.0,-999.0,44,-99.99,,,-99.99,meteohub,2013-04-16 10:17:00,
2013-04-16 11:22:00,61.7,39.6,29.66,North,-999,-999.0,-999.0,44,-99.99,,,-99.99,meteohub,2013-04-16 10:22:00,
2013-04-16 11:27:00,61.3,39.2,29.66,North,-999,-999.0,-999.0,44,-99.99,,,-99.99,meteohub,2013-04-16 10:27:00,
2013-04-16 11:32:00,61.3,39.2,29.66,North,-999,-999.0,-999.0,44,-99.99,,,-99.99,meteohub,2013-04-16 10:32:00,
2013-04-16 11:37:00,61.0,37.2,29.66,North,-999,-999.0,-999.0,41,-99.99,,,-99.99,meteohub,2013-04-16 10:37:00,
2013-04-16 11:42:00,61.3,38.1,29.66,North,-999,-999.0,-999.0,42,-99.99,,,-99.99,meteohub,2013-04-16 10:42:00,
2013-04-16 11:47:00,62.1,38.1,29.66,North,-999,-999.0,-999.0,41,-99.99,,,-99.99,meteohub,2013-04-16 10:47:00,
2013-04-16 11:52:00,62.1,38.1,29.66,North,-999,-999.0,-999.0,41,-99.99,,,-99.99,meteohub,2013-04-16 10:52:00,
2013-04-16 11:57:00,61.5,36.3,29.66,North,-999,-999.0,-999.0,39,-99.99,,,-99.99,meteohub,2013-04-16 10:57:00,
2013-04-16 12:02:00,61.3,36.1,29.66,North,-999,-999.0,-999.0,39,-99.99,,,-99.99,meteohub,2013-04-16 11:02:00,
2013-04-16 12:07:00,61.2,36.0,29.66,North,-999,-999.0,-999.0,39,-99.99,,,-99.99,meteohub,2013-04-16 11:07:00,
2013-04-16 12:12:00,60.8,36.3,29.66,North,-999,-999.0,-999.0,40,-99.99,,,-99.99,meteohub,2013-04-16 11:12:00,
2013-04-16 12:17:00,60.6,37.4,29.66,North,-999,-999.0,-999.0,42,-99.99,,,-99.99,meteohub,2013-04-16 11:17:00,
2013-04-16 12:22:00,60.6,37.4,29.66,North,-999,-999.0,-999.0,42,-99.99,,,-99.99,meteohub,2013-04-16 11:22:00,
2013-04-16 12:27:00,61.2,37.2,29.66,North,-999,-999.0,-999.0,41,-99.99,,,-99.99,meteohub,2013-04-16 11:27:00,
2013-04-16 12:32:00,62.4,39.7,29.66,North,-999,-999.0,-999.0,43,-99.99,,,-99.99,meteohub,2013-04-16 11:32:00,
2013-04-16 12:37:00,61.9,37.4,29.66,North,-999,-999.0,-999.0,40,-99.99,,,-99.99,meteohub,2013-04-16 11:37:00,
2013-04-16 12:42:00,60.6,36.9,29.66,North,-999,-999.0,-999.0,41,-99.99,,,-99.99,meteohub,2013-04-16 11:42:00,
2013-04-16 12:47:00,60.8,37.6,29.66,North,-999,-999.0,-999.0,42,-99.99,,,-99.99,meteohub,2013-04-16 11:47:00,
2013-04-16 12:52:00,61.2,37.9,29.66,North,-999,-999.0,-999.0,42,-99.99,,,-99.99,meteohub,2013-04-16 11:52:00,
2013-04-16 12:57:00,61.7,38.5,29.66,North,-999,-999.0,-999.0,42,-99.99,,,-99.99,meteohub,2013-04-16 11:57:00,
2013-04-16 13:02:00,61.7,37.8,29.66,North,-999,-999.0,-999.0,41,-99.99,,,-99.99,meteohub,2013-04-16 12:02:00,
2013-04-16 13:07:00,61.3,37.4,29.66,North,-999,-999.0,-999.0,41,-99.99,,,-99.99,meteohub,2013-04-16 12:07:00,
2013-04-16 13:12:00,62.2,38.3,29.66,North,-999,-999.0,-999.0,41,-99.99,,,-99.99,meteohub,2013-04-16 12:12:00,
2013-04-16 13:17:00,62.8,38.1,29.66,North,-999,-999.0,-999.0,40,-99.99,,,-99.99,meteohub,2013-04-16 12:17:00,
2013-04-16 13:22:00,63.1,36.5,29.66,North,-999,-999.0,-999.0,37,-99.99,,,-99.99,meteohub,2013-04-16 12:22:00,
2013-04-16 13:27:00,63.9,37.0,29.66,North,-999,-999.0,-999.0,37,-99.99,,,-99.99,meteohub,2013-04-16 12:27:00,
2013-04-16 13:32:00,63.7,36.3,29.66,North,-999,-999.0,-999.0,36,-99.99,,,-99.99,meteohub,2013-04-16 12:32:00,
2013-04-16 13:37:00,64.4,36.9,29.66,North,-999,-999.0,-999.0,36,-99.99,,,-99.99,meteohub,2013-04-16 12:37:00,
2013-04-16 13:47:00,65.3,37.0,29.66,North,-999,-999.0,-999.0,35,-99.99,,,-99.99,meteohub,2013-04-16 12:47:00,
2013-04-16 13:52:00,64.8,35.8,29.69,North,-999,-999.0,-999.0,34,-99.99,,,-99.99,meteohub,2013-04-16 12:52:00,
2013-04-16 13:57:00,64.9,36.0,29.69,North,-999,-999.0,-999.0,34,-99.99,,,-99.99,meteohub,2013-04-16 12:57:00,
2013-04-16 14:02:00,65.3,36.3,29.69,North,-999,-999.0,-999.0,34,-99.99,,,-99.99,meteohub,2013-04-16 13:02:00,
2013-04-16 14:07:00,64.6,35.6,29.69,North,-999,-999.0,-999.0,34,-99.99,,,-99.99,meteohub,2013-04-16 13:07:00,
2013-04-16 14:12:00,64.0,36.0,29.69,North,-999,-999.0,-999.0,35,-99.99,,,-99.99,meteohub,2013-04-16 13:12:00,
2013-04-16 14:17:00,62.8,35.4,29.69,North,-999,-999.0,-999.0,36,-99.99,,,-99.99,meteohub,2013-04-16 13:17:00,
2013-04-16 14:22:00,63.9,36.5,29.69,North,-999,-999.0,-999.0,36,-99.99,,,-99.99,meteohub,2013-04-16 13:22:00,
2013-04-16 14:27:00,64.4,36.1,29.69,North,-999,-999.0,-999.0,35,-99.99,,,-99.99,meteohub,2013-04-16 13:27:00,
2013-04-16 14:32:00,62.8,35.4,29.69,North,-999,-999.0,-999.0,36,-99.99,,,-99.99,meteohub,2013-04-16 13:32:00,
2013-04-16 14:37:00,64.9,37.4,29.69,North,-999,-999.0,-999.0,36,-99.99,,,-99.99,meteohub,2013-04-16 13:37:00,
2013-04-16 14:42:00,65.7,37.2,29.69,North,-999,-999.0,-999.0,35,-99.99,,,-99.99,meteohub,2013-04-16 13:42:00,
2013-04-16 14:52:00,66.2,37.0,29.69,North,-999,-999.0,-999.0,34,-99.99,,,-99.99,meteohub,2013-04-16 13:52:00,
2013-04-16 14:57:00,65.7,36.5,29.69,North,-999,-999.0,-999.0,34,-99.99,,,-99.99,meteohub,2013-04-16 13:57:00,
2013-04-16 15:07:00,62.8,34.7,29.69,North,-999,-999.0,-999.0,35,-99.99,,,-99.99,meteohub,2013-04-16 14:07:00,
2013-04-16 15:12:00,62.6,35.2,29.69,North,-999,-999.0,-999.0,36,-99.99,,,-99.99,meteohub,2013-04-16 14:12:00,
2013-04-16 15:17:00,63.1,35.8,29.69,North,-999,-999.0,-999.0,36,-99.99,,,-99.99,meteohub,2013-04-16 14:17:00,
2013-04-16 15:22:00,64.8,36.5,29.69,North,-999,-999.0,-999.0,35,-99.99,,,-99.99,meteohub,2013-04-16 14:22:00,
2013-04-16 15:27:00,64.2,36.0,29.69,North,-999,-999.0,-999.0,35,-99.99,,,-99.99,meteohub,2013-04-16 14:27:00,
2013-04-16 15:32:00,63.3,35.2,29.69,North,-999,-999.0,-999.0,35,-99.99,,,-99.99,meteohub,2013-04-16 14:32:00,
2013-04-16 15:37:00,63.5,36.1,29.69,North,-999,-999.0,-999.0,36,-99.99,,,-99.99,meteohub,2013-04-16 14:37:00,
2013-04-16 15:42:00,62.8,34.7,29.69,North,-999,-999.0,-999.0,35,-99.99,,,-99.99,meteohub,2013-04-16 14:42:00,
2013-04-16 15:47:00,62.4,35.2,29.69,North,-999,-999.0,-999.0,36,-99.99,,,-99.99,meteohub,2013-04-16 14:47:00,
2013-04-16 15:52:00,63.1,35.1,29.69,North,-999,-999.0,-999.0,35,-99.99,,,-99.99,meteohub,2013-04-16 14:52:00,
2013-04-16 15:57:00,64.4,36.1,29.69,North,-999,-999.0,-999.0,35,-99.99,,,-99.99,meteohub,2013-04-16 14:57:00,
2013-04-16 16:02:00,64.0,36.0,29.69,North,-999,-999.0,-999.0,35,-99.99,,,-99.99,meteohub,2013-04-16 15:02:00,
2013-04-16 16:07:00,64.4,35.4,29.69,North,-999,-999.0,-999.0,34,-99.99,,,-99.99,meteohub,2013-04-16 15:07:00,
2013-04-16 16:12:00,65.8,36.7,29.69,North,-999,-999.0,-999.0,34,-99.99,,,-99.99,meteohub,2013-04-16 15:12:00,
2013-04-16 16:17:00,66.6,36.7,29.69,North,-999,-999.0,-999.0,33,-99.99,,,-99.99,meteohub,2013-04-16 15:17:00,
2013-04-16 16:22:00,66.4,36.5,29.69,North,-999,-999.0,-999.0,33,-99.99,,,-99.99,meteohub,2013-04-16 15:22:00,
2013-04-16 16:27:00,66.0,36.1,29.69,North,-999,-999.0,-999.0,33,-99.99,,,-99.99,meteohub,2013-04-16 15:27:00,
2013-04-16 16:32:00,63.7,34.9,29.69,North,-999,-999.0,-999.0,34,-99.99,,,-99.99,meteohub,2013-04-16 15:32:00,
2013-04-16 16:37:00,63.1,34.3,29.69,North,-999,-999.0,-999.0,34,-99.99,,,-99.99,meteohub,2013-04-16 15:37:00,
2013-04-16 16:42:00,62.8,34.7,29.69,North,-999,-999.0,-999.0,35,-99.99,,,-99.99,meteohub,2013-04-16 15:42:00,
2013-04-16 16:47:00,61.9,34.7,29.69,North,-999,-999.0,-999.0,36,-99.99,,,-99.99,meteohub,2013-04-16 15:47:00,
2013-04-16 16:52:00,62.6,35.2,29.69,North,-999,-999.0,-999.0,36,-99.99,,,-99.99,meteohub,2013-04-16 15:52:00,
2013-04-16 16:57:00,62.8,35.4,29.69,North,-999,-999.0,-999.0,36,-99.99,,,-99.99,meteohub,2013-04-16 15:57:00,
2013-04-16 17:02:00,63.9,35.8,29.69,North,-999,-999.0,-999.0,35,-99.99,,,-99.99,meteohub,2013-04-16 16:02:00,
2013-04-16 17:12:00,65.1,36.9,29.69,North,-999,-999.0,-999.0,35,-99.99,,,-99.99,meteohub,2013-04-16 16:12:00,
2013-04-16 17:17:00,65.8,36.7,29.69,North,-999,-999.0,-999.0,34,-99.99,,,-99.99,meteohub,2013-04-16 16:17:00,
2013-04-16 17:22:00,65.1,36.1,29.72,North,-999,-999.0,-999.0,34,-99.99,,,-99.99,meteohub,2013-04-16 16:22:00,
2013-04-16 17:27:00,63.5,35.4,29.72,North,-999,-999.0,-999.0,35,-99.99,,,-99.99,meteohub,2013-04-16 16:27:00,
2013-04-16 17:32:00,64.2,36.0,29.72,North,-999,-999.0,-999.0,35,-99.99,,,-99.99,meteohub,2013-04-16 16:32:00,
2013-04-16 17:37:00,64.8,36.5,29.72,North,-999,-999.0,-999.0,35,-99.99,,,-99.99,meteohub,2013-04-16 16:37:00,
2013-04-16 17:42:00,64.6,35.6,29.72,North,-999,-999.0,-999.0,34,-99.99,,,-99.99,meteohub,2013-04-16 16:42:00,
2013-04-16 17:47:00,63.7,35.6,29.72,North,-999,-999.0,-999.0,35,-99.99,,,-99.99,meteohub,2013-04-16 16:47:00,
2013-04-16 17:52:00,63.7,35.6,29.72,North,-999,-999.0,-999.0,35,-99.99,,,-99.99,meteohub,2013-04-16 16:52:00,
2013-04-16 17:57:00,63.5,35.4,29.72,North,-999,-999.0,-999.0,35,-99.99,,,-99.99,meteohub,2013-04-16 16:57:00,
2013-04-16 18:02:00,63.5,35.4,29.72,North,-999,-999.0,-999.0,35,-99.99,,,-99.99,meteohub,2013-04-16 17:02:00,
2013-04-16 18:07:00,63.1,35.8,29.72,North,-999,-999.0,-999.0,36,-99.99,,,-99.99,meteohub,2013-04-16 17:07:00,
2013-04-16 18:12:00,62.8,35.4,29.72,North,-999,-999.0,-999.0,36,-99.99,,,-99.99,meteohub,2013-04-16 17:12:00,
2013-04-16 18:17:00,62.4,35.8,29.72,North,-999,-999.0,-999.0,37,-99.99,,,-99.99,meteohub,2013-04-16 17:17:00,
2013-04-16 18:22:00,62.1,35.6,29.72,North,-999,-999.0,-999.0,37,-99.99,,,-99.99,meteohub,2013-04-16 17:22:00,
2013-04-16 18:27:00,61.7,36.0,29.72,North,-999,-999.0,-999.0,38,-99.99,,,-99.99,meteohub,2013-04-16 17:27:00,
2013-04-16 18:32:00,61.2,35.4,29.72,North,-999,-999.0,-999.0,38,-99.99,,,-99.99,meteohub,2013-04-16 17:32:00,
2013-04-16 18:37:00,60.8,35.1,29.72,North,-999,-999.0,-999.0,38,-99.99,,,-99.99,meteohub,2013-04-16 17:37:00,
2013-04-16 18:42:00,60.3,35.2,29.72,North,-999,-999.0,-999.0,39,-99.99,,,-99.99,meteohub,2013-04-16 17:42:00,
2013-04-16 18:47:00,60.1,35.8,29.72,North,-999,-999.0,-999.0,40,-99.99,,,-99.99,meteohub,2013-04-16 17:47:00,
2013-04-16 18:52:00,59.7,36.0,29.72,North,-999,-999.0,-999.0,41,-99.99,,,-99.99,meteohub,2013-04-16 17:52:00,
2013-04-16 18:57:00,59.2,37.4,29.72,North,-999,-999.0,-999.0,44,-99.99,,,-99.99,meteohub,2013-04-16 17:57:00,
2013-04-16 19:02:00,59.2,38.5,29.72,North,-999,-999.0,-999.0,46,-99.99,,,-99.99,meteohub,2013-04-16 18:02:00,
2013-04-16 19:07:00,58.8,38.7,29.72,North,-999,-999.0,-999.0,47,-99.99,,,-99.99,meteohub,2013-04-16 18:07:00,
2013-04-16 19:12:00,58.5,38.3,29.72,North,-999,-999.0,-999.0,47,-99.99,,,-99.99,meteohub,2013-04-16 18:12:00,
2013-04-16 19:17:00,57.6,38.1,29.72,North,-999,-999.0,-999.0,48,-99.99,,,-99.99,meteohub,2013-04-16 18:17:00,
2013-04-16 19:22:00,57.2,38.3,29.72,North,-999,-999.0,-999.0,49,-99.99,,,-99.99,meteohub,2013-04-16 18:22:00,
2013-04-16 19:27:00,56.8,38.5,29.72,North,-999,-999.0,-999.0,50,-99.99,,,-99.99,meteohub,2013-04-16 18:27:00,
2013-04-16 19:32:00,56.5,38.7,29.72,North,-999,-999.0,-999.0,51,-99.99,,,-99.99,meteohub,2013-04-16 18:32:00,
2013-04-16 19:37:00,56.1,38.8,29.72,North,-999,-999.0,-999.0,52,-99.99,,,-99.99,meteohub,2013-04-16 18:37:00,
2013-04-16 19:42:00,55.8,38.8,29.72,North,-999,-999.0,-999.0,53,-99.99,,,-99.99,meteohub,2013-04-16 18:42:00,
2013-04-16 19:47:00,55.4,38.7,29.72,North,-999,-999.0,-999.0,53,-99.99,,,-99.99,meteohub,2013-04-16 18:47:00,
2013-04-16 19:52:00,55.2,39.7,29.75,North,-999,-999.0,-999.0,56,-99.99,,,-99.99,meteohub,2013-04-16 18:52:00,
2013-04-16 19:57:00,54.7,38.8,29.75,North,-999,-999.0,-999.0,55,-99.99,,,-99.99,meteohub,2013-04-16 18:57:00,
2013-04-16 20:07:00,54.3,39.9,29.75,North,-999,-999.0,-999.0,58,-99.99,,,-99.99,meteohub,2013-04-16 19:07:00,
2013-04-16 20:17:00,54.0,39.9,29.75,North,-999,-999.0,-999.0,59,-99.99,,,-99.99,meteohub,2013-04-16 19:17:00,
2013-04-16 20:27:00,53.2,39.7,29.75,North,-999,-999.0,-999.0,60,-99.99,,,-99.99,meteohub,2013-04-16 19:27:00,
2013-04-16 20:32:00,53.1,40.5,29.75,North,-999,-999.0,-999.0,62,-99.99,,,-99.99,meteohub,2013-04-16 19:32:00,
2013-04-16 20:37:00,53.1,41.2,29.75,North,-999,-999.0,-999.0,64,-99.99,,,-99.99,meteohub,2013-04-16 19:37:00,
2013-04-16 20:42:00,53.1,41.5,29.75,North,-999,-999.0,-999.0,65,-99.99,,,-99.99,meteohub,2013-04-16 19:42:00,
2013-04-16 20:47:00,52.9,41.5,29.75,North,-999,-999.0,-999.0,65,-99.99,,,-99.99,meteohub,2013-04-16 19:47:00,
2013-04-16 20:57:00,52.3,41.4,29.75,North,-999,-999.0,-999.0,66,-99.99,,,-99.99,meteohub,2013-04-16 19:57:00,
2013-04-16 21:02:00,52.2,41.5,29.75,North,-999,-999.0,-999.0,67,-99.99,,,-99.99,meteohub,2013-04-16 20:02:00,
2013-04-16 21:07:00,52.2,41.5,29.78,North,-999,-999.0,-999.0,67,-99.99,,,-99.99,meteohub,2013-04-16 20:07:00,
2013-04-16 21:12:00,51.8,41.2,29.78,North,-999,-999.0,-999.0,67,-99.99,,,-99.99,meteohub,2013-04-16 20:12:00,
2013-04-16 21:17:00,51.6,41.7,29.78,North,-999,-999.0,-999.0,69,-99.99,,,-99.99,meteohub,2013-04-16 20:17:00,
2013-04-16 21:22:00,51.4,41.2,29.78,North,-999,-999.0,-999.0,68,-99.99,,,-99.99,meteohub,2013-04-16 20:22:00,
2013-04-16 21:27:00,51.3,41.9,29.78,North,-999,-999.0,-999.0,70,-99.99,,,-99.99,meteohub,2013-04-16 20:27:00,
2013-04-16 21:32:00,51.1,41.4,29.78,North,-999,-999.0,-999.0,69,-99.99,,,-99.99,meteohub,2013-04-16 20:32:00,
2013-04-16 21:37:00,51.1,42.1,29.78,North,-999,-999.0,-999.0,71,-99.99,,,-99.99,meteohub,2013-04-16 20:37:00,
2013-04-16 21:42:00,50.7,41.4,29.78,North,-999,-999.0,-999.0,70,-99.99,,,-99.99,meteohub,2013-04-16 20:42:00,
2013-04-16 21:47:00,50.5,41.5,29.78,North,-999,-999.0,-999.0,71,-99.99,,,-99.99,meteohub,2013-04-16 20:47:00,
2013-04-16 21:52:00,50.7,42.4,29.78,North,-999,-999.0,-999.0,73,-99.99,,,-99.99,meteohub,2013-04-16 20:52:00,
2013-04-16 21:57:00,50.5,43.0,29.78,North,-999,-999.0,-999.0,75,-99.99,,,-99.99,meteohub,2013-04-16 20:57:00,
2013-04-16 22:02:00,50.5,43.0,29.78,North,-999,-999.0,-999.0,75,-99.99,,,-99.99,meteohub,2013-04-16 21:02:00,
2013-04-16 22:07:00,50.2,43.0,29.78,North,-999,-999.0,-999.0,76,-99.99,,,-99.99,meteohub,2013-04-16 21:07:00,
2013-04-16 22:12:00,50.2,43.0,29.78,North,-999,-999.0,-999.0,76,-99.99,,,-99.99,meteohub,2013-04-16 21:12:00,
2013-04-16 22:17:00,49.8,42.6,29.78,North,-999,-999.0,-999.0,76,-99.99,,,-99.99,meteohub,2013-04-16 21:17:00,
2013-04-16 22:22:00,50.0,43.3,29.78,North,-999,-999.0,-999.0,78,-99.99,,,-99.99,meteohub,2013-04-16 21:22:00,
2013-04-16 22:27:00,49.8,43.5,29.78,North,-999,-999.0,-999.0,79,-99.99,,,-99.99,meteohub,2013-04-16 21:27:00,
2013-04-16 22:32:00,49.8,44.2,29.78,North,-999,-999.0,-999.0,81,-99.99,,,-99.99,meteohub,2013-04-16 21:32:00,
2013-04-16 22:42:00,50.0,44.4,29.78,North,-999,-999.0,-999.0,81,-99.99,,,-99.99,meteohub,2013-04-16 21:42:00,
2013-04-16 22:47:00,50.0,44.1,29.78,North,-999,-999.0,-999.0,80,-99.99,,,-99.99,meteohub,2013-04-16 21:47:00,
2013-04-16 22:52:00,50.2,44.6,29.78,North,-999,-999.0,-999.0,81,-99.99,,,-99.99,meteohub,2013-04-16 21:52:00,
2013-04-16 22:57:00,50.2,44.6,29.78,North,-999,-999.0,-999.0,81,-99.99,,,-99.99,meteohub,2013-04-16 21:57:00,
2013-04-16 23:02:00,50.2,44.6,29.78,North,-999,-999.0,-999.0,81,-99.99,,,-99.99,meteohub,2013-04-16 22:02:00,
2013-04-16 23:07:00,50.2,44.6,29.78,North,-999,-999.0,-999.0,81,-99.99,,,-99.99,meteohub,2013-04-16 22:07:00,
2013-04-16 23:12:00,50.2,44.6,29.78,North,-999,-999.0,-999.0,81,-99.99,,,-99.99,meteohub,2013-04-16 22:12:00,
2013-04-16 23:17:00,50.2,44.2,29.78,North,-999,-999.0,-999.0,80,-99.99,,,-99.99,meteohub,2013-04-16 22:17:00,
2013-04-16 23:22:00,50.0,44.1,29.78,North,-999,-999.0,-999.0,80,-99.99,,,-99.99,meteohub,2013-04-16 22:22:00,
2013-04-16 23:27:00,49.8,44.2,29.78,North,-999,-999.0,-999.0,81,-99.99,,,-99.99,meteohub,2013-04-16 22:27:00,
2013-04-16 23:32:00,49.5,43.5,29.78,North,-999,-999.0,-999.0,80,-99.99,,,-99.99,meteohub,2013-04-16 22:32:00,
2013-04-16 23:37:00,49.5,43.9,29.78,North,-999,-999.0,-999.0,81,-99.99,,,-99.99,meteohub,2013-04-16 22:37:00,
2013-04-16 23:42:00,49.6,44.1,29.78,North,-999,-999.0,-999.0,81,-99.99,,,-99.99,meteohub,2013-04-16 22:42:00,
2013-04-16 23:47:00,49.6,44.1,29.78,North,-999,-999.0,-999.0,81,-99.99,,,-99.99,meteohub,2013-04-16 22:47:00,
2013-04-16 23:52:00,49.5,44.2,29.78,North,-999,-999.0,-999.0,82,-99.99,,,-99.99,meteohub,2013-04-16 22:52:00,
2013-04-16 23:57:00,49.3,44.1,29.78,North,-999,-999.0,-999.0,82,-99.99,,,-99.99,meteohub,2013-04-16 22:57:00,